Tracking 25378 objects as of 22-Jan-2022
HD Live streaming from Space Station
objects crossing your sky now

STARLINK-1803

Track STARLINK-1803 now!
10-day predictions
STARLINK-1803 is classified as:


NORAD ID: 46703
Int'l Code: 2020-073AK
Perigee: 553.1 km
Apogee: 555.6 km
Inclination: 53.1 °
Period: 95.6 minutes
Semi major axis: 6925 km
RCS: Unknown
Launch date: October 18, 2020
Source: United States (US)
Launch site: AIR FORCE EASTERN TEST RANGE (AFETR)
aabbcc
Your satellite tracking list
Your tracking list is empty




NASA's NSSDC Master Catalog

Two Line Element Set (TLE):
1 46703U 20073AK  22021.67337302 -.00000524  00000-0 -16275-4 0  9998
2 46703  53.0533 171.3645 0001862  80.1795 279.9404 15.06401205 70315
Source of the keplerian elements: AFSPC